Tracking 28790 objects as of 18-Apr-2024
HD Live streaming from Space Station
objects crossing your sky now

THORAD AGENA D R/B

Track THORAD AGENA D R/B now!
10-day predictions


NORAD ID: 4367
Int'l Code: 1970-025C
Perigee: 1,047.5 km
Apogee: 1,100.9 km
Inclination: 100.1 °
Period: 106.6 minutes
Semi major axis: 7445 km
RCS: 3.5986 m2 (large)
Launch date: April 8, 1970
Source: United States (US)
Launch site: AIR FORCE WESTERN TEST RANGE (AFWTR)

Note: This is a ROCKET BODY
Your satellite tracking list
Your tracking list is empty




NASA's NSSDC Master Catalog

Two Line Element Set (TLE):
1 04367U 70025C   24109.20585036  .00000043  00000-0  13622-3 0  9993
2 04367 100.0539 176.3233 0035836 182.6370 245.2878 13.51415942676210
Source of the keplerian elements: AFSPC